{"data":{"norad_id":57999,"intl_designator":"2023-153J","name":"STARLINK-30552","alt_names":[],"object_type":"PAYLOAD","status":"ACTIVE","operator":null,"country":"US","launch_date":"2023-10-05","launch_site_code":"AFETR","launch_vehicle":null,"mission":null,"orbit_class":"UNKNOWN","rcs_meters":null,"size_class":null,"mass_kg":null,"dimensions":null,"purposes":["comms"],"wikipedia_slug":null,"has_3d_model":false,"image_url":null,"decayed_at":null,"tle_current":{"epoch":"2026-09-20T21:08:48.952032Z","epoch_age_seconds":105547,"freshness":"FRESH","line1":"1 57999U 23153J   26263.88112213 -.00000265  00000+0 -11270-6 0  9999","line2":"2 57999  43.0020  45.1232 0001534 269.0561  91.0114 15.27569683164749","mean_motion":15.27569683,"eccentricity":0.0001534,"inclination_deg":43.002,"raan_deg":45.1232,"arg_perigee_deg":269.0561,"mean_anomaly_deg":91.0114,"bstar":-1.127e-7,"rev_number":16474,"period_min":94.267385378582,"perigee_km":482.02747833693,"apogee_km":484.13249970916,"semimajor_km":6861.216989023,"source":"CELESTRAK","updated_at":"2026-09-21T09:00:33.754639Z"}}}